Time,TemperatureF,DewpointF,PressureIn,WindDirection,WindDirectionDegrees,WindSpeedMPH,WindSpeedGustMPH,Humidity,HourlyPrecipIn,Conditions,Clouds,dailyrainin,SoftwareType,DateUTC
2013-11-04 00:02:00,61.9,55.6,29.84,SW,225,4.0,4.0,80,0.00,,,0.00,meteohub,2013-11-04 08:02:00,
2013-11-04 00:07:00,61.9,55.6,29.85,NW,315,3.0,6.0,80,0.00,,,0.00,meteohub,2013-11-04 08:07:00,
2013-11-04 00:12:00,61.9,55.2,29.85,South,180,8.0,8.0,79,0.00,,,0.00,meteohub,2013-11-04 08:12:00,
2013-11-04 00:17:00,61.9,54.9,29.85,South,180,5.0,8.0,78,0.00,,,0.00,meteohub,2013-11-04 08:17:00,
2013-11-04 00:22:00,61.9,54.9,29.85,SE,135,4.0,8.0,78,0.00,,,0.00,meteohub,2013-11-04 08:22:00,
2013-11-04 00:27:00,61.9,55.2,29.85,South,180,3.0,8.0,79,0.00,,,0.00,meteohub,2013-11-04 08:27:00,
2013-11-04 00:32:00,61.9,55.2,29.84,SW,225,3.0,5.0,79,0.00,,,0.00,meteohub,2013-11-04 08:32:00,
2013-11-04 00:37:00,61.9,55.2,29.85,South,180,3.0,5.0,79,0.00,,,0.00,meteohub,2013-11-04 08:37:00,
2013-11-04 00:42:00,61.9,55.2,29.85,West,270,1.0,4.0,79,0.00,,,0.00,meteohub,2013-11-04 08:42:00,
2013-11-04 00:47:00,61.7,55.4,29.85,West,270,3.0,3.0,80,0.00,,,0.00,meteohub,2013-11-04 08:47:00,
2013-11-04 00:52:00,61.9,55.6,29.85,West,270,2.0,3.0,80,0.00,,,0.00,meteohub,2013-11-04 08:52:00,
2013-11-04 00:57:00,61.7,55.4,29.85,West,270,2.0,3.0,80,0.00,,,0.00,meteohub,2013-11-04 08:57:00,
2013-11-04 01:02:00,61.7,55.4,29.84,South,180,4.0,4.0,80,0.00,,,0.00,meteohub,2013-11-04 09:02:00,
2013-11-04 01:07:00,61.7,55.4,29.84,WSW,248,2.0,4.0,80,0.00,,,0.00,meteohub,2013-11-04 09:07:00,
2013-11-04 01:12:00,61.7,55.4,29.84,West,270,3.0,4.0,80,0.00,,,0.00,meteohub,2013-11-04 09:12:00,
2013-11-04 01:17:00,61.7,55.4,29.84,SW,225,2.0,4.0,80,0.00,,,0.00,meteohub,2013-11-04 09:17:00,
2013-11-04 01:22:00,61.7,55.4,29.83,WSW,248,2.0,4.0,80,0.00,,,0.00,meteohub,2013-11-04 09:22:00,
2013-11-04 01:27:00,61.7,55.4,29.83,SW,225,2.0,4.0,80,0.00,,,0.00,meteohub,2013-11-04 09:27:00,
2013-11-04 01:32:00,61.7,55.8,29.83,WSW,248,3.0,4.0,81,0.00,,,0.00,meteohub,2013-11-04 09:32:00,
2013-11-04 01:37:00,61.7,55.8,29.82,SW,225,5.0,5.0,81,0.00,,,0.00,meteohub,2013-11-04 09:37:00,
2013-11-04 01:42:00,61.5,55.9,29.81,WSW,248,4.0,6.0,82,0.00,,,0.00,meteohub,2013-11-04 09:42:00,
2013-11-04 01:47:00,61.3,55.8,29.81,West,270,4.0,6.0,82,0.00,,,0.00,meteohub,2013-11-04 09:47:00,
2013-11-04 01:52:00,61.2,55.9,29.82,NW,315,4.0,7.0,83,0.00,,,0.00,meteohub,2013-11-04 09:52:00,
2013-11-04 01:57:00,61.2,56.3,29.81,West,270,4.0,7.0,84,0.00,,,0.00,meteohub,2013-11-04 09:57:00,
2013-11-04 02:02:00,61.0,56.1,29.81,WNW,293,3.0,5.0,84,0.00,,,0.00,meteohub,2013-11-04 10:02:00,
2013-11-04 02:07:00,61.0,56.5,29.82,West,270,2.0,4.0,85,0.00,,,0.00,meteohub,2013-11-04 10:07:00,
2013-11-04 02:12:00,60.8,56.3,29.81,West,270,3.0,4.0,85,0.00,,,0.00,meteohub,2013-11-04 10:12:00,
2013-11-04 02:17:00,60.6,56.1,29.81,West,270,4.0,4.0,85,0.00,,,0.00,meteohub,2013-11-04 10:17:00,
2013-11-04 02:22:00,60.6,56.1,29.81,West,270,3.0,4.0,85,0.00,,,0.00,meteohub,2013-11-04 10:22:00,
2013-11-04 02:27:00,60.6,56.5,29.81,West,270,4.0,4.0,86,0.00,,,0.00,meteohub,2013-11-04 10:27:00,
2013-11-04 02:32:00,60.6,56.5,29.82,NW,315,4.0,4.0,86,0.00,,,0.00,meteohub,2013-11-04 10:32:00,
2013-11-04 02:37:00,60.6,56.1,29.82,NW,315,2.0,4.0,85,0.00,,,0.00,meteohub,2013-11-04 10:37:00,
2013-11-04 02:42:00,60.6,56.1,29.82,West,270,2.0,4.0,85,0.00,,,0.00,meteohub,2013-11-04 10:42:00,
2013-11-04 02:47:00,60.6,56.5,29.81,West,270,4.0,4.0,86,0.00,,,0.00,meteohub,2013-11-04 10:47:00,
2013-11-04 02:52:00,60.8,56.3,29.82,West,270,4.0,4.0,85,0.00,,,0.00,meteohub,2013-11-04 10:52:00,
2013-11-04 02:57:00,60.8,56.3,29.81,West,270,3.0,4.0,85,0.00,,,0.00,meteohub,2013-11-04 10:57:00,
2013-11-04 03:02:00,61.0,56.5,29.82,NW,315,4.0,4.0,85,0.00,,,0.00,meteohub,2013-11-04 11:02:00,
2013-11-04 03:07:00,61.0,56.1,29.81,West,270,3.0,4.0,84,0.00,,,0.00,meteohub,2013-11-04 11:07:00,
2013-11-04 03:12:00,61.0,56.1,29.81,West,270,3.0,4.0,84,0.00,,,0.00,meteohub,2013-11-04 11:12:00,
2013-11-04 03:14:00,61.0,56.1,29.81,NW,315,3.0,4.0,84,0.00,,,0.00,meteohub,2013-11-04 11:14:00,
2013-11-04 03:19:00,61.0,55.8,29.81,West,270,3.0,4.0,83,0.00,,,0.00,meteohub,2013-11-04 11:19:00,
2013-11-04 03:22:00,61.0,55.8,29.82,West,270,3.0,4.0,83,0.00,,,0.00,meteohub,2013-11-04 11:22:00,
2013-11-04 03:27:00,61.0,55.8,29.82,NW,315,2.0,4.0,83,0.00,,,0.00,meteohub,2013-11-04 11:27:00,
2013-11-04 03:32:00,61.0,55.8,29.82,West,270,3.0,4.0,83,0.00,,,0.00,meteohub,2013-11-04 11:32:00,
2013-11-04 03:37:00,61.0,56.1,29.81,West,270,4.0,4.0,84,0.00,,,0.00,meteohub,2013-11-04 11:37:00,
2013-11-04 03:42:00,61.0,56.1,29.82,WNW,293,4.0,4.0,84,0.00,,,0.00,meteohub,2013-11-04 11:42:00,
2013-11-04 03:47:00,61.2,56.3,29.81,NW,315,3.0,4.0,84,0.00,,,0.00,meteohub,2013-11-04 11:47:00,
2013-11-04 03:52:00,61.2,56.3,29.81,NW,315,4.0,4.0,84,0.00,,,0.00,meteohub,2013-11-04 11:52:00,
2013-11-04 03:57:00,61.2,56.3,29.81,NW,315,1.0,4.0,84,0.00,,,0.00,meteohub,2013-11-04 11:57:00,
2013-11-04 04:02:00,61.0,56.1,29.82,NW,315,0.0,4.0,84,0.00,,,0.00,meteohub,2013-11-04 12:02:00,
2013-11-04 04:07:00,61.0,56.1,29.82,NW,315,0.0,4.0,84,0.00,,,0.00,meteohub,2013-11-04 12:07:00,
2013-11-04 04:12:00,60.8,55.9,29.82,NW,315,1.0,2.0,84,0.00,,,0.00,meteohub,2013-11-04 12:12:00,
2013-11-04 04:17:00,60.8,55.9,29.82,NW,315,2.0,2.0,84,0.00,,,0.00,meteohub,2013-11-04 12:17:00,
2013-11-04 04:22:00,60.8,56.3,29.82,NW,315,0.0,2.0,85,0.00,,,0.00,meteohub,2013-11-04 12:22:00,
2013-11-04 04:27:00,60.6,56.5,29.82,NW,315,0.0,2.0,86,0.00,,,0.00,meteohub,2013-11-04 12:27:00,
2013-11-04 04:32:00,60.6,56.7,29.82,SE,135,1.0,2.0,87,0.00,,,0.00,meteohub,2013-11-04 12:32:00,
2013-11-04 04:37:00,60.6,56.7,29.82,SE,135,0.0,2.0,87,0.00,,,0.00,meteohub,2013-11-04 12:37:00,
2013-11-04 04:42:00,60.6,56.5,29.82,SE,135,2.0,2.0,86,0.00,,,0.00,meteohub,2013-11-04 12:42:00,
2013-11-04 04:47:00,60.4,56.3,29.82,SE,135,1.0,2.0,86,0.00,,,0.00,meteohub,2013-11-04 12:47:00,
2013-11-04 04:52:00,60.6,56.5,29.82,SE,135,1.0,2.0,86,0.00,,,0.00,meteohub,2013-11-04 12:52:00,
2013-11-04 04:57:00,60.4,56.3,29.82,SE,135,0.0,2.0,86,0.00,,,0.00,meteohub,2013-11-04 12:57:00,
2013-11-04 05:02:00,60.4,56.3,29.82,SE,135,0.0,2.0,86,0.00,,,0.00,meteohub,2013-11-04 13:02:00,
2013-11-04 05:07:00,60.4,56.3,29.82,SE,135,1.0,2.0,86,0.00,,,0.00,meteohub,2013-11-04 13:07:00,
2013-11-04 05:12:00,60.4,56.3,29.82,South,180,2.0,2.0,86,0.00,,,0.00,meteohub,2013-11-04 13:12:00,
2013-11-04 05:17:00,60.4,56.3,29.81,West,270,2.0,2.0,86,0.00,,,0.00,meteohub,2013-11-04 13:17:00,
2013-11-04 05:22:00,60.6,56.5,29.81,West,270,0.0,2.0,86,0.00,,,0.00,meteohub,2013-11-04 13:22:00,
2013-11-04 05:27:00,60.6,56.1,29.81,SW,225,2.0,2.0,85,0.00,,,0.00,meteohub,2013-11-04 13:27:00,
2013-11-04 05:32:00,60.8,55.9,29.81,SW,225,1.0,3.0,84,0.00,,,0.00,meteohub,2013-11-04 13:32:00,
2013-11-04 05:37:00,60.8,56.3,29.81,South,180,3.0,3.0,85,0.00,,,0.00,meteohub,2013-11-04 13:37:00,
2013-11-04 05:42:00,61.0,56.5,29.81,South,180,2.0,3.0,85,0.00,,,0.00,meteohub,2013-11-04 13:42:00,
2013-11-04 05:47:00,61.0,56.1,29.81,South,180,4.0,4.0,84,0.00,,,0.00,meteohub,2013-11-04 13:47:00,
2013-11-04 05:52:00,61.2,56.3,29.82,South,180,4.0,4.0,84,0.00,,,0.00,meteohub,2013-11-04 13:52:00,
2013-11-04 05:57:00,61.2,56.3,29.82,South,180,2.0,4.0,84,0.00,,,0.00,meteohub,2013-11-04 13:57:00,
2013-11-04 06:02:00,61.2,55.9,29.81,SSE,158,4.0,4.0,83,0.00,,,0.00,meteohub,2013-11-04 14:02:00,
2013-11-04 06:07:00,61.2,55.9,29.82,South,180,2.0,4.0,83,0.00,,,0.00,meteohub,2013-11-04 14:07:00,
2013-11-04 06:12:00,61.2,55.9,29.82,South,180,2.0,4.0,83,0.00,,,0.00,meteohub,2013-11-04 14:12:00,
2013-11-04 06:17:00,61.2,55.6,29.82,South,180,2.0,4.0,82,0.00,,,0.00,meteohub,2013-11-04 14:17:00,
2013-11-04 06:22:00,61.0,55.4,29.82,South,180,2.0,4.0,82,0.00,,,0.00,meteohub,2013-11-04 14:22:00,
2013-11-04 06:27:00,60.8,55.6,29.82,SSE,158,3.0,4.0,83,0.00,,,0.00,meteohub,2013-11-04 14:27:00,
2013-11-04 06:32:00,60.6,55.4,29.83,SE,135,2.0,4.0,83,0.00,,,0.00,meteohub,2013-11-04 14:32:00,
2013-11-04 06:37:00,60.4,55.2,29.83,SE,135,2.0,4.0,83,0.00,,,0.00,meteohub,2013-11-04 14:37:00,
2013-11-04 06:42:00,60.3,55.4,29.83,SE,135,2.0,3.0,84,0.00,,,0.00,meteohub,2013-11-04 14:42:00,
2013-11-04 06:47:00,60.3,55.4,29.83,SE,135,2.0,2.0,84,0.00,,,0.00,meteohub,2013-11-04 14:47:00,
2013-11-04 06:52:00,60.3,55.4,29.83,SSE,158,2.0,2.0,84,0.00,,,0.00,meteohub,2013-11-04 14:52:00,
2013-11-04 06:57:00,60.3,55.4,29.84,SE,135,2.0,3.0,84,0.00,,,0.00,meteohub,2013-11-04 14:57:00,
2013-11-04 07:02:00,60.3,55.4,29.84,SE,135,2.0,3.0,84,0.00,,,0.00,meteohub,2013-11-04 15:02:00,
2013-11-04 07:07:00,60.3,55.0,29.84,SE,135,2.0,3.0,83,0.00,,,0.00,meteohub,2013-11-04 15:07:00,
2013-11-04 07:12:00,60.6,55.4,29.84,SE,135,4.0,4.0,83,0.00,,,0.00,meteohub,2013-11-04 15:12:00,
2013-11-04 07:17:00,61.2,55.6,29.85,SE,135,2.0,4.0,82,0.00,,,0.00,meteohub,2013-11-04 15:17:00,
2013-11-04 07:22:00,61.3,55.0,29.85,South,180,3.0,4.0,80,0.00,,,0.00,meteohub,2013-11-04 15:22:00,
2013-11-04 07:27:00,61.5,55.2,29.85,South,180,4.0,4.0,80,0.00,,,0.00,meteohub,2013-11-04 15:27:00,
2013-11-04 07:32:00,61.7,55.0,29.85,SSE,158,3.0,4.0,79,0.00,,,0.00,meteohub,2013-11-04 15:32:00,
2013-11-04 07:37:00,61.9,54.9,29.85,South,180,2.0,4.0,78,0.00,,,0.00,meteohub,2013-11-04 15:37:00,
2013-11-04 07:42:00,62.1,55.0,29.86,SE,135,2.0,4.0,78,0.00,,,0.00,meteohub,2013-11-04 15:42:00,
2013-11-04 07:47:00,62.4,54.7,29.86,South,180,4.0,4.0,76,0.00,,,0.00,meteohub,2013-11-04 15:47:00,
2013-11-04 07:52:00,62.6,55.2,29.86,SE,135,2.0,4.0,77,0.00,,,0.00,meteohub,2013-11-04 15:52:00,
2013-11-04 07:57:00,62.8,55.0,29.87,ESE,113,3.0,4.0,76,0.00,,,0.00,meteohub,2013-11-04 15:57:00,
2013-11-04 08:02:00,63.0,55.2,29.87,SE,135,3.0,4.0,76,0.00,,,0.00,meteohub,2013-11-04 16:02:00,
2013-11-04 08:07:00,63.1,55.4,29.87,SE,135,2.0,3.0,76,0.00,,,0.00,meteohub,2013-11-04 16:07:00,
2013-11-04 08:12:00,63.5,55.4,29.87,SE,135,2.0,3.0,75,0.00,,,0.00,meteohub,2013-11-04 16:12:00,
2013-11-04 08:17:00,63.9,55.4,29.86,SE,135,2.0,3.0,74,0.00,,,0.00,meteohub,2013-11-04 16:17:00,
2013-11-04 08:22:00,64.2,55.0,29.87,SE,135,2.0,3.0,72,0.00,,,0.00,meteohub,2013-11-04 16:22:00,
2013-11-04 08:27:00,64.6,55.0,29.87,ESE,113,4.0,4.0,71,0.00,,,0.00,meteohub,2013-11-04 16:27:00,
2013-11-04 08:32:00,64.6,55.0,29.87,East,90,2.0,4.0,71,0.00,,,0.00,meteohub,2013-11-04 16:32:00,
2013-11-04 08:37:00,64.8,55.2,29.87,East,90,2.0,4.0,71,0.00,,,0.00,meteohub,2013-11-04 16:37:00,
2013-11-04 08:42:00,65.3,55.6,29.88,East,90,2.0,4.0,71,0.00,,,0.00,meteohub,2013-11-04 16:42:00,
2013-11-04 08:47:00,66.0,55.6,29.88,East,90,2.0,2.0,69,0.00,,,0.00,meteohub,2013-11-04 16:47:00,
2013-11-04 08:52:00,66.4,55.9,29.88,NE,45,1.0,3.0,69,0.00,,,0.00,meteohub,2013-11-04 16:52:00,
2013-11-04 08:57:00,66.4,55.6,29.87,SSW,203,2.0,3.0,68,0.00,,,0.00,meteohub,2013-11-04 16:57:00,
2013-11-04 09:02:00,66.6,55.2,29.88,ESE,113,2.0,3.0,67,0.00,,,0.00,meteohub,2013-11-04 17:02:00,
2013-11-04 09:07:00,66.6,55.2,29.88,East,90,2.0,3.0,67,0.00,,,0.00,meteohub,2013-11-04 17:07:00,
2013-11-04 09:12:00,66.9,55.6,29.88,NE,45,3.0,3.0,67,0.00,,,0.00,meteohub,2013-11-04 17:12:00,
2013-11-04 09:17:00,67.1,55.4,29.88,NNE,23,4.0,4.0,66,0.00,,,0.00,meteohub,2013-11-04 17:17:00,
2013-11-04 09:22:00,66.6,55.2,29.88,North,0,2.0,4.0,67,0.00,,,0.00,meteohub,2013-11-04 17:22:00,
2013-11-04 09:27:00,66.9,55.6,29.88,North,0,1.0,4.0,67,0.00,,,0.00,meteohub,2013-11-04 17:27:00,
2013-11-04 09:32:00,67.1,55.4,29.88,NE,45,2.0,4.0,66,0.00,,,0.00,meteohub,2013-11-04 17:32:00,
2013-11-04 09:37:00,66.7,55.4,29.88,NE,45,2.0,3.0,67,0.00,,,0.00,meteohub,2013-11-04 17:37:00,
2013-11-04 09:42:00,67.1,55.8,29.89,NE,45,2.0,4.0,67,0.00,,,0.00,meteohub,2013-11-04 17:42:00,
2013-11-04 09:47:00,67.5,56.1,29.89,NE,45,1.0,4.0,67,0.00,,,0.00,meteohub,2013-11-04 17:47:00,
2013-11-04 09:52:00,67.3,55.6,29.89,West,270,3.0,4.0,66,0.00,,,0.00,meteohub,2013-11-04 17:52:00,
2013-11-04 09:57:00,66.0,55.6,29.89,NW,315,4.0,5.0,69,0.00,,,0.00,meteohub,2013-11-04 17:57:00,
2013-11-04 10:02:00,65.3,55.6,29.89,West,270,4.0,7.0,71,0.00,,,0.00,meteohub,2013-11-04 18:02:00,
2013-11-04 10:07:00,65.1,55.9,29.89,West,270,7.0,7.0,72,0.00,,,0.00,meteohub,2013-11-04 18:07:00,
2013-11-04 10:12:00,65.1,55.4,29.88,WNW,293,6.0,7.0,71,0.00,,,0.00,meteohub,2013-11-04 18:12:00,
2013-11-04 10:17:00,65.1,55.4,29.89,West,270,5.0,7.0,71,0.00,,,0.00,meteohub,2013-11-04 18:17:00,
2013-11-04 10:22:00,65.1,55.4,29.89,West,270,3.0,7.0,71,0.00,,,0.00,meteohub,2013-11-04 18:22:00,
2013-11-04 10:27:00,65.1,56.3,29.89,NW,315,4.0,8.0,73,0.00,,,0.00,meteohub,2013-11-04 18:27:00,
2013-11-04 10:32:00,64.9,56.5,29.88,West,270,5.0,8.0,74,0.00,,,0.00,meteohub,2013-11-04 18:32:00,
2013-11-04 10:37:00,65.1,56.7,29.88,South,180,5.0,8.0,74,0.00,,,0.00,meteohub,2013-11-04 18:37:00,
2013-11-04 10:42:00,65.7,56.3,29.88,NW,315,3.0,8.0,72,0.00,,,0.00,meteohub,2013-11-04 18:42:00,
2013-11-04 10:47:00,66.0,56.7,29.88,West,270,6.0,8.0,72,0.00,,,0.00,meteohub,2013-11-04 18:47:00,
2013-11-04 10:52:00,66.2,56.5,29.87,NW,315,2.0,8.0,71,0.00,,,0.00,meteohub,2013-11-04 18:52:00,
2013-11-04 10:57:00,66.2,56.1,29.87,NW,315,3.0,10.0,70,0.00,,,0.00,meteohub,2013-11-04 18:57:00,
2013-11-04 11:02:00,66.9,56.8,29.87,East,90,5.0,10.0,70,0.00,,,0.00,meteohub,2013-11-04 19:02:00,
2013-11-04 11:07:00,67.1,56.7,29.87,NW,315,4.0,10.0,69,0.00,,,0.00,meteohub,2013-11-04 19:07:00,
2013-11-04 11:12:00,67.1,56.7,29.87,SSW,203,4.0,6.0,69,0.00,,,0.00,meteohub,2013-11-04 19:12:00,
2013-11-04 11:17:00,68.2,58.1,29.87,NW,315,6.0,7.0,70,0.00,,,0.00,meteohub,2013-11-04 19:17:00,
2013-11-04 11:22:00,67.8,57.2,29.87,NW,315,5.0,7.0,69,0.00,,,0.00,meteohub,2013-11-04 19:22:00,
2013-11-04 11:27:00,67.5,57.7,29.87,NW,315,3.0,8.0,71,0.00,,,0.00,meteohub,2013-11-04 19:27:00,
2013-11-04 11:32:00,67.8,57.7,29.87,NW,315,6.0,9.0,70,0.00,,,0.00,meteohub,2013-11-04 19:32:00,
2013-11-04 11:37:00,67.8,57.2,29.87,West,270,6.0,9.0,69,0.00,,,0.00,meteohub,2013-11-04 19:37:00,
2013-11-04 11:42:00,68.9,57.6,29.86,NW,315,4.0,9.0,67,0.00,,,0.00,meteohub,2013-11-04 19:42:00,
2013-11-04 11:47:00,69.4,57.9,29.86,SW,225,4.0,11.0,67,0.00,,,0.00,meteohub,2013-11-04 19:47:00,
2013-11-04 11:52:00,69.6,57.7,29.86,WNW,293,11.0,14.0,66,0.00,,,0.00,meteohub,2013-11-04 19:52:00,
2013-11-04 11:57:00,69.6,58.6,29.86,SW,225,7.0,14.0,68,0.00,,,0.00,meteohub,2013-11-04 19:57:00,
2013-11-04 12:02:00,69.1,58.8,29.86,NW,315,9.0,14.0,70,0.00,,,0.00,meteohub,2013-11-04 20:02:00,
2013-11-04 12:07:00,68.5,57.6,29.86,West,270,7.0,13.0,68,0.00,,,0.00,meteohub,2013-11-04 20:07:00,
2013-11-04 12:12:00,68.9,58.3,29.86,West,270,5.0,13.0,69,0.00,,,0.00,meteohub,2013-11-04 20:12:00,
2013-11-04 12:17:00,69.3,58.6,29.86,SW,225,6.0,10.0,69,0.00,,,0.00,meteohub,2013-11-04 20:17:00,
2013-11-04 12:22:00,69.3,58.3,29.86,West,270,11.0,11.0,68,0.00,,,0.00,meteohub,2013-11-04 20:22:00,
2013-11-04 12:27:00,69.1,58.8,29.85,NW,315,9.0,14.0,70,0.00,,,0.00,meteohub,2013-11-04 20:27:00,
2013-11-04 12:32:00,69.1,58.1,29.85,West,270,11.0,14.0,68,0.00,,,0.00,meteohub,2013-11-04 20:32:00,
2013-11-04 12:37:00,68.7,58.1,29.85,NW,315,11.0,14.0,69,0.00,,,0.00,meteohub,2013-11-04 20:37:00,
2013-11-04 12:42:00,69.3,58.3,29.86,WNW,293,6.0,11.0,68,0.00,,,0.00,meteohub,2013-11-04 20:42:00,
2013-11-04 12:47:00,68.9,58.3,29.85,NW,315,7.0,14.0,69,0.00,,,0.00,meteohub,2013-11-04 20:47:00,
2013-11-04 12:52:00,68.5,57.9,29.86,WSW,248,9.0,14.0,69,0.00,,,0.00,meteohub,2013-11-04 20:52:00,
2013-11-04 12:57:00,68.4,58.3,29.85,West,270,7.0,14.0,70,0.00,,,0.00,meteohub,2013-11-04 20:57:00,
2013-11-04 13:02:00,68.4,57.7,29.85,NW,315,7.0,14.0,69,0.00,,,0.00,meteohub,2013-11-04 21:02:00,
2013-11-04 13:07:00,68.2,58.5,29.85,West,270,9.0,13.0,71,0.00,,,0.00,meteohub,2013-11-04 21:07:00,
2013-11-04 13:12:00,68.2,58.1,29.85,NW,315,11.0,13.0,70,0.00,,,0.00,meteohub,2013-11-04 21:12:00,
2013-11-04 13:17:00,68.0,58.3,29.85,NW,315,12.0,13.0,71,0.00,,,0.00,meteohub,2013-11-04 21:17:00,
2013-11-04 13:22:00,68.2,57.2,29.85,NW,315,15.0,15.0,68,0.00,,,0.00,meteohub,2013-11-04 21:22:00,
2013-11-04 13:27:00,68.0,56.7,29.85,NW,315,11.0,15.0,67,0.00,,,0.00,meteohub,2013-11-04 21:27:00,
2013-11-04 13:32:00,66.9,56.8,29.85,West,270,10.0,15.0,70,0.00,,,0.00,meteohub,2013-11-04 21:32:00,
2013-11-04 13:37:00,67.3,56.3,29.85,NW,315,10.0,15.0,68,0.00,,,0.00,meteohub,2013-11-04 21:37:00,
2013-11-04 13:42:00,67.8,56.5,29.85,WNW,293,8.0,14.0,67,0.00,,,0.00,meteohub,2013-11-04 21:42:00,
2013-11-04 13:47:00,68.4,56.1,29.85,WNW,293,8.0,14.0,65,0.00,,,0.00,meteohub,2013-11-04 21:47:00,
2013-11-04 13:52:00,68.2,56.3,29.85,NW,315,10.0,14.0,66,0.00,,,0.00,meteohub,2013-11-04 21:52:00,
2013-11-04 13:57:00,68.2,55.9,29.84,NW,315,7.0,14.0,65,0.00,,,0.00,meteohub,2013-11-04 21:57:00,
2013-11-04 14:02:00,67.8,56.1,29.85,West,270,10.0,14.0,66,0.00,,,0.00,meteohub,2013-11-04 22:02:00,
2013-11-04 14:07:00,67.5,55.2,29.85,North,0,9.0,12.0,65,0.00,,,0.00,meteohub,2013-11-04 22:07:00,
2013-11-04 14:12:00,67.1,55.4,29.85,NW,315,7.0,11.0,66,0.00,,,0.00,meteohub,2013-11-04 22:12:00,
2013-11-04 14:17:00,66.4,56.3,29.85,NW,315,9.0,11.0,70,0.00,,,0.00,meteohub,2013-11-04 22:17:00,
2013-11-04 14:22:00,65.7,56.8,29.85,WSW,248,8.0,10.0,73,0.00,,,0.00,meteohub,2013-11-04 22:22:00,
2013-11-04 14:27:00,65.7,56.8,29.84,West,270,8.0,12.0,73,0.00,,,0.00,meteohub,2013-11-04 22:27:00,
2013-11-04 14:32:00,67.1,57.4,29.85,West,270,9.0,12.0,71,0.00,,,0.00,meteohub,2013-11-04 22:32:00,
2013-11-04 14:37:00,67.1,57.0,29.84,West,270,12.0,12.0,70,0.00,,,0.00,meteohub,2013-11-04 22:37:00,
2013-11-04 14:43:00,67.3,57.2,29.84,NW,315,6.0,12.0,70,0.00,,,0.00,meteohub,2013-11-04 22:43:00,
2013-11-04 14:48:00,67.3,56.8,29.84,NW,315,8.0,12.0,69,0.00,,,0.00,meteohub,2013-11-04 22:48:00,
2013-11-04 14:53:00,67.6,56.7,29.85,NW,315,4.0,12.0,68,0.00,,,0.00,meteohub,2013-11-04 22:53:00,
2013-11-04 14:58:00,67.5,56.1,29.84,NW,315,10.0,11.0,67,0.00,,,0.00,meteohub,2013-11-04 22:58:00,
2013-11-04 15:03:00,67.1,56.1,29.84,WNW,293,8.0,11.0,68,0.00,,,0.00,meteohub,2013-11-04 23:03:00,
2013-11-04 15:08:00,67.1,56.1,29.84,NW,315,8.0,11.0,68,0.00,,,0.00,meteohub,2013-11-04 23:08:00,
2013-11-04 15:13:00,67.1,55.8,29.85,NE,45,9.0,11.0,67,0.00,,,0.00,meteohub,2013-11-04 23:13:00,
2013-11-04 15:18:00,66.9,55.9,29.85,West,270,4.0,11.0,68,0.00,,,0.00,meteohub,2013-11-04 23:18:00,
2013-11-04 15:23:00,66.9,55.9,29.85,West,270,10.0,11.0,68,0.00,,,0.00,meteohub,2013-11-04 23:23:00,
2013-11-04 15:28:00,66.6,56.1,29.85,NW,315,9.0,11.0,69,0.00,,,0.00,meteohub,2013-11-04 23:28:00,
2013-11-04 15:33:00,66.4,55.6,29.86,NW,315,8.0,10.0,68,0.00,,,0.00,meteohub,2013-11-04 23:33:00,
2013-11-04 15:38:00,66.2,55.4,29.85,NW,315,10.0,10.0,68,0.00,,,0.00,meteohub,2013-11-04 23:38:00,
2013-11-04 15:43:00,66.6,55.2,29.85,NW,315,4.0,10.0,67,0.00,,,0.00,meteohub,2013-11-04 23:43:00,
2013-11-04 15:48:00,66.2,55.4,29.85,WNW,293,5.0,10.0,68,0.00,,,0.00,meteohub,2013-11-04 23:48:00,
2013-11-04 15:53:00,65.8,55.4,29.85,WNW,293,8.0,10.0,69,0.00,,,0.00,meteohub,2013-11-04 23:53:00,
2013-11-04 15:58:00,65.7,55.2,29.86,West,270,8.0,9.0,69,0.00,,,0.00,meteohub,2013-11-04 23:58:00,
2013-11-04 16:03:00,65.3,54.9,29.86,NW,315,8.0,8.0,69,0.00,,,0.00,meteohub,2013-11-05 00:03:00,
2013-11-04 16:08:00,65.3,55.2,29.86,West,270,5.0,8.0,70,0.00,,,0.00,meteohub,2013-11-05 00:08:00,
2013-11-04 16:13:00,65.1,54.7,29.86,West,270,6.0,8.0,69,0.00,,,0.00,meteohub,2013-11-05 00:13:00,
2013-11-04 16:18:00,64.9,54.1,29.86,NW,315,7.0,8.0,68,0.00,,,0.00,meteohub,2013-11-05 00:18:00,
2013-11-04 16:23:00,64.6,55.0,29.86,NW,315,5.0,8.0,71,0.00,,,0.00,meteohub,2013-11-05 00:23:00,
2013-11-04 16:28:00,64.2,55.0,29.86,NW,315,6.0,7.0,72,0.00,,,0.00,meteohub,2013-11-05 00:28:00,
2013-11-04 16:33:00,63.9,55.0,29.87,NW,315,5.0,7.0,73,0.00,,,0.00,meteohub,2013-11-05 00:33:00,
2013-11-04 16:38:00,63.7,55.9,29.86,NW,315,4.0,7.0,76,0.00,,,0.00,meteohub,2013-11-05 00:38:00,
2013-11-04 16:43:00,63.3,55.6,29.86,NW,315,5.0,8.0,76,0.00,,,0.00,meteohub,2013-11-05 00:43:00,
2013-11-04 16:48:00,62.8,55.0,29.86,NW,315,4.0,8.0,76,0.00,,,0.00,meteohub,2013-11-05 00:48:00,
2013-11-04 16:53:00,62.8,55.0,29.86,West,270,4.0,8.0,76,0.00,,,0.00,meteohub,2013-11-05 00:53:00,
2013-11-04 16:58:00,62.6,55.2,29.86,NW,315,3.0,7.0,77,0.00,,,0.00,meteohub,2013-11-05 00:58:00,
2013-11-04 17:03:00,62.4,55.8,29.87,West,270,3.0,7.0,79,0.00,,,0.00,meteohub,2013-11-05 01:03:00,
2013-11-04 17:08:00,62.2,55.9,29.87,WNW,293,3.0,7.0,80,0.00,,,0.00,meteohub,2013-11-05 01:08:00,
2013-11-04 17:13:00,62.1,55.8,29.87,West,270,5.0,7.0,80,0.00,,,0.00,meteohub,2013-11-05 01:13:00,
2013-11-04 17:18:00,61.7,55.8,29.87,NW,315,2.0,5.0,81,0.00,,,0.00,meteohub,2013-11-05 01:18:00,
2013-11-04 17:23:00,61.7,56.1,29.87,West,270,5.0,5.0,82,0.00,,,0.00,meteohub,2013-11-05 01:23:00,
2013-11-04 17:28:00,61.7,56.1,29.87,NW,315,4.0,5.0,82,0.00,,,0.00,meteohub,2013-11-05 01:28:00,
2013-11-04 17:33:00,61.7,56.1,29.87,NW,315,4.0,5.0,82,0.00,,,0.00,meteohub,2013-11-05 01:33:00,
2013-11-04 17:38:00,61.7,56.5,29.88,NW,315,4.0,5.0,83,0.00,,,0.00,meteohub,2013-11-05 01:38:00,
2013-11-04 17:43:00,61.5,55.9,29.88,NW,315,4.0,5.0,82,0.00,,,0.00,meteohub,2013-11-05 01:43:00,
2013-11-04 17:48:00,61.5,55.9,29.88,NW,315,2.0,5.0,82,0.00,,,0.00,meteohub,2013-11-05 01:48:00,
2013-11-04 17:54:00,61.5,55.9,29.88,NW,315,4.0,4.0,82,0.00,,,0.00,meteohub,2013-11-05 01:54:00,
2013-11-04 17:59:00,61.5,55.9,29.89,NW,315,3.0,4.0,82,0.00,,,0.00,meteohub,2013-11-05 01:59:00,
2013-11-04 18:04:00,61.5,55.9,29.89,NW,315,3.0,4.0,82,0.00,,,0.00,meteohub,2013-11-05 02:04:00,
2013-11-04 18:09:00,61.5,55.9,29.89,NW,315,2.0,4.0,82,0.00,,,0.00,meteohub,2013-11-05 02:09:00,
2013-11-04 18:14:00,61.3,55.8,29.89,NW,315,2.0,4.0,82,0.00,,,0.00,meteohub,2013-11-05 02:14:00,
2013-11-04 18:19:00,61.3,55.8,29.89,NW,315,4.0,4.0,82,0.00,,,0.00,meteohub,2013-11-05 02:19:00,
2013-11-04 18:24:00,61.2,55.6,29.89,NW,315,4.0,4.0,82,0.00,,,0.00,meteohub,2013-11-05 02:24:00,
2013-11-04 18:29:00,61.3,55.8,29.89,NW,315,2.0,4.0,82,0.00,,,0.00,meteohub,2013-11-05 02:29:00,
2013-11-04 18:34:00,60.8,54.9,29.89,NW,315,0.0,4.0,81,0.00,,,0.00,meteohub,2013-11-05 02:34:00,
2013-11-04 18:39:00,60.4,54.9,29.89,NW,315,0.0,4.0,82,0.00,,,0.00,meteohub,2013-11-05 02:39:00,
2013-11-04 18:44:00,60.1,54.9,29.89,NW,315,0.0,3.0,83,0.00,,,0.00,meteohub,2013-11-05 02:44:00,
2013-11-04 18:49:00,59.7,54.1,29.89,NW,315,0.0,3.0,82,0.00,,,0.00,meteohub,2013-11-05 02:49:00,
2013-11-04 18:54:00,59.4,54.1,29.90,NW,315,0.0,3.0,83,0.00,,,0.00,meteohub,2013-11-05 02:54:00,
2013-11-04 18:59:00,59.2,54.7,29.90,NW,315,0.0,3.0,85,0.00,,,0.00,meteohub,2013-11-05 02:59:00,
2013-11-04 19:04:00,59.4,55.2,29.90,NW,315,2.0,2.0,86,0.00,,,0.00,meteohub,2013-11-05 03:04:00,
2013-11-04 19:09:00,59.5,55.6,29.90,NW,315,2.0,2.0,87,0.00,,,0.00,meteohub,2013-11-05 03:09:00,
2013-11-04 19:14:00,59.2,55.4,29.90,NW,315,0.0,2.0,87,0.00,,,0.00,meteohub,2013-11-05 03:14:00,
2013-11-04 19:19:00,59.0,55.2,29.90,NW,315,2.0,2.0,87,0.00,,,0.00,meteohub,2013-11-05 03:19:00,
2013-11-04 19:24:00,58.8,55.2,29.90,NW,315,1.0,2.0,88,0.00,,,0.00,meteohub,2013-11-05 03:24:00,
2013-11-04 19:29:00,58.6,55.4,29.90,NW,315,0.0,2.0,89,0.00,,,0.00,meteohub,2013-11-05 03:29:00,
2013-11-04 19:34:00,58.5,55.2,29.90,NW,315,0.0,2.0,89,0.00,,,0.00,meteohub,2013-11-05 03:34:00,
2013-11-04 19:39:00,58.5,55.6,29.91,NW,315,0.0,1.0,90,0.00,,,0.00,meteohub,2013-11-05 03:39:00,
2013-11-04 19:44:00,58.5,55.8,29.91,NW,315,0.0,1.0,91,0.00,,,0.00,meteohub,2013-11-05 03:44:00,
2013-11-04 19:49:00,58.5,56.1,29.91,NW,315,0.0,1.0,92,0.00,,,0.00,meteohub,2013-11-05 03:49:00,
2013-11-04 19:54:00,58.3,55.9,29.91,NW,315,0.0,1.0,92,0.00,,,0.00,meteohub,2013-11-05 03:54:00,
2013-11-04 19:59:00,57.9,55.2,29.92,NW,315,0.0,2.0,91,0.00,,,0.00,meteohub,2013-11-05 03:59:00,
2013-11-04 20:04:00,57.7,55.2,29.91,NW,315,0.0,2.0,91,0.00,,,0.00,meteohub,2013-11-05 04:04:00,
2013-11-04 20:09:00,57.4,55.0,29.92,NW,315,1.0,2.0,92,0.00,,,0.00,meteohub,2013-11-05 04:09:00,
2013-11-04 20:14:00,57.7,55.8,29.92,NW,315,1.0,1.0,93,0.00,,,0.00,meteohub,2013-11-05 04:14:00,
2013-11-04 20:19:00,57.9,55.9,29.92,NW,315,0.0,1.0,93,0.00,,,0.00,meteohub,2013-11-05 04:19:00,
2013-11-04 20:25:00,58.1,56.1,29.92,NW,315,0.0,1.0,93,0.00,,,0.00,meteohub,2013-11-05 04:25:00,
2013-11-04 20:30:00,58.1,56.3,29.92,NW,315,0.0,1.0,94,0.00,,,0.00,meteohub,2013-11-05 04:30:00,
2013-11-04 20:35:00,58.1,56.1,29.92,NW,315,0.0,1.0,93,0.00,,,0.00,meteohub,2013-11-05 04:35:00,
2013-11-04 20:40:00,57.9,56.1,29.93,NW,315,0.0,0.0,94,0.00,,,0.00,meteohub,2013-11-05 04:40:00,
2013-11-04 20:45:00,57.6,55.6,29.93,NW,315,0.0,0.0,93,0.00,,,0.00,meteohub,2013-11-05 04:45:00,
2013-11-04 20:50:00,57.2,55.4,29.93,NW,315,0.0,0.0,94,0.00,,,0.00,meteohub,2013-11-05 04:50:00,
2013-11-04 20:55:00,57.0,55.2,29.93,NW,315,0.0,0.0,94,0.00,,,0.00,meteohub,2013-11-05 04:55:00,
2013-11-04 21:00:00,56.7,55.0,29.93,NW,315,0.0,0.0,94,0.00,,,0.00,meteohub,2013-11-05 05:00:00,
2013-11-04 21:01:00,56.5,54.9,29.94,NW,315,0.0,0.0,94,0.00,,,0.00,meteohub,2013-11-05 05:01:00,
2013-11-04 21:03:00,56.3,54.7,29.94,NW,315,0.0,0.0,94,0.00,,,0.00,meteohub,2013-11-05 05:03:00,
2013-11-04 21:08:00,55.9,54.5,29.94,NW,315,0.0,0.0,95,0.00,,,0.00,meteohub,2013-11-05 05:08:00,
2013-11-04 21:13:00,55.8,54.3,29.94,NW,315,0.0,0.0,95,0.00,,,0.00,meteohub,2013-11-05 05:13:00,
2013-11-04 21:18:00,55.9,55.0,29.94,NW,315,0.0,0.0,97,0.00,,,0.00,meteohub,2013-11-05 05:18:00,
2013-11-04 21:23:00,56.3,55.8,29.94,NW,315,0.0,0.0,98,0.00,,,0.00,meteohub,2013-11-05 05:23:00,
2013-11-04 21:28:00,56.1,55.2,29.94,NW,315,0.0,0.0,97,0.00,,,0.00,meteohub,2013-11-05 05:28:00,
2013-11-04 21:33:00,56.1,55.6,29.94,NW,315,0.0,0.0,98,0.00,,,0.00,meteohub,2013-11-05 05:33:00,
2013-11-04 21:38:00,56.1,55.6,29.94,NW,315,0.0,2.0,98,0.00,,,0.00,meteohub,2013-11-05 05:38:00,
2013-11-04 21:43:00,55.9,55.4,29.94,NW,315,0.0,2.0,98,0.00,,,0.00,meteohub,2013-11-05 05:43:00,
2013-11-04 21:48:00,55.8,55.2,29.94,NW,315,1.0,2.0,98,0.00,,,0.00,meteohub,2013-11-05 05:48:00,
2013-11-04 21:53:00,55.9,55.6,29.94,NW,315,0.0,0.0,99,0.00,,,0.00,meteohub,2013-11-05 05:53:00,
2013-11-04 21:58:00,56.3,55.9,29.94,NW,315,0.0,1.0,99,0.00,,,0.00,meteohub,2013-11-05 05:58:00,
2013-11-04 22:03:00,56.5,56.1,29.95,NW,315,1.0,1.0,99,0.00,,,0.00,meteohub,2013-11-05 06:03:00,
2013-11-04 22:08:00,56.5,56.1,29.94,NW,315,1.0,2.0,99,0.00,,,0.00,meteohub,2013-11-05 06:08:00,
2013-11-04 22:13:00,56.3,55.9,29.94,NW,315,0.0,2.0,99,0.00,,,0.00,meteohub,2013-11-05 06:13:00,
2013-11-04 22:18:00,55.9,55.4,29.94,NW,315,1.0,2.0,98,0.00,,,0.00,meteohub,2013-11-05 06:18:00,
2013-11-04 22:23:00,55.9,55.6,29.94,NW,315,0.0,2.0,99,0.00,,,0.00,meteohub,2013-11-05 06:23:00,
2013-11-04 22:28:00,55.9,55.4,29.94,NW,315,0.0,2.0,98,0.00,,,0.00,meteohub,2013-11-05 06:28:00,
2013-11-04 22:33:00,55.9,55.6,29.95,NW,315,0.0,1.0,99,0.00,,,0.00,meteohub,2013-11-05 06:33:00,
2013-11-04 22:38:00,56.1,55.8,29.95,NW,315,1.0,1.0,99,0.00,,,0.00,meteohub,2013-11-05 06:38:00,
2013-11-04 22:43:00,55.8,55.4,29.95,NW,315,2.0,2.0,99,0.00,,,0.00,meteohub,2013-11-05 06:43:00,
2013-11-04 22:48:00,55.0,54.5,29.95,NW,315,0.0,2.0,98,0.00,,,0.00,meteohub,2013-11-05 06:48:00,
2013-11-04 22:53:00,54.7,54.1,29.95,NW,315,0.0,2.0,98,0.00,,,0.00,meteohub,2013-11-05 06:53:00,
2013-11-04 22:58:00,54.5,54.1,29.95,NW,315,0.0,2.0,99,0.00,,,0.00,meteohub,2013-11-05 06:58:00,
2013-11-04 23:03:00,54.1,53.8,29.95,NW,315,0.0,2.0,99,0.00,,,0.00,meteohub,2013-11-05 07:03:00,
2013-11-04 23:08:00,54.1,53.8,29.94,NW,315,2.0,2.0,99,0.00,,,0.00,meteohub,2013-11-05 07:08:00,
2013-11-04 23:13:00,54.3,54.0,29.94,NW,315,0.0,2.0,99,0.00,,,0.00,meteohub,2013-11-05 07:13:00,
2013-11-04 23:18:00,54.7,54.3,29.95,NW,315,2.0,2.0,99,0.00,,,0.00,meteohub,2013-11-05 07:18:00,
2013-11-04 23:23:00,54.9,54.5,29.95,South,180,3.0,3.0,99,0.00,,,0.00,meteohub,2013-11-05 07:23:00,
2013-11-04 23:28:00,55.0,54.7,29.95,South,180,2.0,2.0,99,0.00,,,0.00,meteohub,2013-11-05 07:28:00,
2013-11-04 23:33:00,55.0,54.7,29.95,South,180,0.0,3.0,99,0.00,,,0.00,meteohub,2013-11-05 07:33:00,
2013-11-04 23:38:00,55.0,54.7,29.95,South,180,2.0,3.0,99,0.00,,,0.00,meteohub,2013-11-05 07:38:00,
2013-11-04 23:43:00,54.9,54.3,29.95,South,180,2.0,2.0,98,0.00,,,0.00,meteohub,2013-11-05 07:43:00,
2013-11-04 23:48:00,54.1,53.2,29.95,South,180,1.0,2.0,97,0.00,,,0.00,meteohub,2013-11-05 07:48:00,
2013-11-04 23:53:00,53.8,52.9,29.96,South,180,1.0,2.0,97,0.00,,,0.00,meteohub,2013-11-05 07:53:00,
2013-11-04 23:58:00,53.4,52.9,29.96,South,180,0.0,2.0,98,0.00,,,0.00,meteohub,2013-11-05 07:58:00,